Location: Heilbronn
(49.1548°N, 9.2780°E)
Time: 09:59:23
(UTC+02:00)

ISS - Pass Details

Date: 10 February 2018
Orbit: 402 x 406 km, 51.6° (Epoch: 18 June)

Event Time Altitude Azimuth Distance (km) Brightness Sun altitude
Rises 18:30:16 0° 289° (WNW) 2,322 1.2 -9.6°
Reaches altitude 10° 18:32:23 10° 285° (WNW) 1,460 0.2 -9.9°
Maximum altitude 18:35:34 50° 208° (SSW) 519 -3.0 -10.4°
Drops below altitude 10° 18:38:44 10° 132° (SE) 1,455 -1.4 -11.0°
Enters shadow 18:39:11 - 130° (SE) 1,631 -1.1 -11.0°
